Regional Weather Roundup
Issued by NWS Jackson, KY

Home | Current Version | Previous Version | Graphics & Text | Print | Product List | Glossary On
Versions: 1 2 3 4 5 6 7 8 9 10 11 12 13 14 15 16 17 18 19 20 21 22 23 24 25 26 27 28 29 30 31 32 33 34 35 36 37 38 39 40 41 42 43 44 45 46 47 48 49 50
000
ASUS43 KJKL 080110
RWRJKL

EAST KENTUCKY HOURLY WEATHER ROUNDUP
NATIONAL WEATHER SERVICE JACKSON KY
800 PM EST SUN FEB 07 2016

NOTE: "FAIR" INDICATES FEW OR NO CLOUDS BELOW 12,000 FEET WITH
NO SIGNIFICANT WEATHER AND/OR OBSTRUCTIONS TO VISIBILITY.

* THESE REPORTS ARE NOT UNDER NWS QUALITY CONTROL AND MAY NOT
  REPORT WEATHER SUCH AS PRECIPITATION AND FOG.

KYZ079-080-083-085-087-088-110-112-115-119-120-080200
...EASTERN KENTUCKY...

CITY           SKY/WX    TMP DP  RH WIND       PRES   REMARKS
JACKSON        CLEAR     46  19  34 SW3       29.91F
LONDON         CLEAR     41  21  44 W5        29.93S
SOMERSET*      PTCLDY    43  21  42 CALM      29.94F
MONTICELLO*    MOCLDY    36  25  64 CALM      29.95F
WILLIAMSBURG*  CLEAR     45  19  36 CALM      29.94S
MIDDLESBORO*   CLEAR     38  26  61 NW3       29.95F
HARLAN APT*      N/A     41  21  45 CALM      29.93F
HAZARD APT*    CLEAR    N/A N/A N/A CALM      29.92F
BIG SANDY*     CLEAR     46  21  37 CALM      29.91F
MOREHEAD APT*  PTCLDY    45  21  39 SW7       29.92S
$$

KYZ035-036-041-042-044-050-067-078-099-080200
...CENTRAL KENTUCKY...

CITY           SKY/WX    TMP DP  RH WIND       PRES   REMARKS
MT STERLING*   CLOUDY    43  23  45 SW7       29.91F
DANVILLE*      PTCLDY    41  23  48 SW5       29.92F
RICHMOND*      PTCLDY    45  19  36 S7        29.91F
LEXINGTON      PTCLDY    41  21  44 S8        29.90F
FRANKFORT      CLOUDY    44  21  40 S7        29.88F
$$

KYZ091>093-OHZ055-061-077-WVZ005-015-034-035-042-080200
...SOUTHERN OHIO/WEST VIRGINIA...

CITY           SKY/WX    TMP DP  RH WIND       PRES   REMARKS
COVINGTON      MOCLDY    47  21  35 S8        29.85F
COLUMBUS       MOCLDY    44  20  38 S6        29.86F
DAYTON         CLOUDY    46  23  40 S9        29.84F
WILMINGTON     PTCLDY    38  25  59 S8        29.85F WCI  32
HUNTINGTON       N/A     49  20  31 CALM      29.89F
CHARLESTON       N/A     42  23  46 CALM      29.90F
PINEVILLE*       N/A     32  24  73 MISG      29.95F
BECKLEY          N/A     31  20  63 CALM      29.89F
$$

VAZ002-007-008-TNZ017-027-036-066-071-080200
...SOUTHWEST VIRGINIA/EAST TENNESSEE...

CITY           SKY/WX    TMP DP  RH WIND       PRES   REMARKS
BRISTOL        PTCLDY    38  24  57 SW6       29.94S WCI  33
KNOXVILLE      CLEAR     44  23  43 S3        29.95F
OAK RIDGE      CLEAR     43  26  51 CALM      29.97S
CROSSVILLE     PTCLDY    40  20  44 CALM      29.95F
NASHVILLE      MOCLDY    49  17  28 SW5       29.95F
$$

...KEY TO REMARKS...
VSB - VISIBILITY IN MILES
WCI - WIND CHILL INDEX
HX  - HEAT INDEX

$$



USA.gov is the U.S. government's official web portal to all federal, state and local government web resources and services.